Voltar ao catálogo

THORAD AGENA D DEB

AtivoLEO
NORAD 4895·DEBRIS·🇺🇸 United States

Lançado Sep 30, 1969 de Vandenberg Space Force Base

Loading…

Próximas Passagens (próximas 24 horas)

TLE

AtualizadoSource: Space-Track

Época: Sep 14, 2026, 17:05 UTC

1 04895U 69082HE  26257.71192227  .00000708  00000-0  22676-3 0  9995
2 04895  70.1687 235.1738 0038935 163.8144 196.4242 14.42956923956116

Acompanhe THORAD AGENA D DEB em tempo real com AllMySat

Download on the App Store